| time (UTC) | temp C | wind direction | speed KPH | gust KPH | rain 1hr cm | rain 24hr cm | rain mn cm | humidity % | barometer mb |
| 20260509101940 | 11 | 187 | 3.2 | 8.0 | 0.00 | 0.00 | 0.00 | 98 | 964.8 |
| 20260509101259 | 11 | 195 | 8.0 | 8.0 | 0.00 | 0.00 | 0.00 | 98 | 964.9 |
| 20260509100621 | 10 | 217 | 6.4 | 8.0 | 0.00 | 0.00 | 0.00 | 98 | 965.2 |
| 20260509095940 | 10 | 145 | 1.6 | 0.0 | 0.00 | 0.00 | 0.00 | 98 | 965.2 |
| 20260509095305 | 10 | 160 | 8.0 | 9.7 | 0.00 | 0.00 | 0.00 | 98 | 965.1 |
| 20260509094622 | 10 | 160 | 11.3 | 4.8 | 0.00 | 0.00 | 0.00 | 97 | 965.1 |
| 20260509093944 | 10 | 162 | 11.3 | 11.3 | 0.00 | 0.00 | 0.00 | 97 | 965.1 |
| 20260509093304 | 10 | 160 | 9.7 | 9.7 | 0.00 | 0.00 | 0.00 | 96 | 965.4 |
| 20260509092626 | 10 | 150 | 6.4 | 6.4 | 0.00 | 0.00 | 0.00 | 96 | 965.6 |
| 20260509091945 | 10 | 150 | 3.2 | 0.0 | 0.00 | 0.00 | 0.00 | 95 | 965.6 |
| 20260509091308 | 10 | 162 | 8.0 | 0.0 | 0.00 | 0.00 | 0.00 | 95 | 965.7 |
| 20260509090627 | 10 | 139 | 1.6 | 9.7 | 0.00 | 0.00 | 0.00 | 95 | 965.7 |
| 20260509085949 | 10 | 174 | 4.8 | 8.0 | 0.00 | 0.00 | 0.00 | 94 | 965.7 |
| 20260509085308 | 10 | 170 | 4.8 | 8.0 | 0.00 | 0.00 | 0.00 | 93 | 965.9 |
| 20260509084631 | 10 | 174 | 11.3 | 8.0 | 0.00 | 0.00 | 0.00 | 92 | 965.8 |
| 20260509083950 | 11 | 177 | 9.7 | 9.7 | 0.00 | 0.00 | 0.00 | 90 | 965.7 |
| 20260509083312 | 11 | 165 | 14.5 | 14.5 | 0.00 | 0.00 | 0.00 | 87 | 965.9 |
| 20260509082631 | 11 | 191 | 11.3 | 12.9 | 0.00 | 0.00 | 0.00 | 85 | 966.0 |
| 20260509081954 | 11 | 177 | 3.2 | 6.4 | 0.00 | 0.00 | 0.00 | 83 | 966.4 |
| 20260509081313 | 11 | 198 | 6.4 | 11.3 | 0.00 | 0.00 | 0.00 | 81 | 966.3 |
| 20260509080636 | 11 | 224 | 11.3 | 8.0 | 0.00 | 0.00 | 0.00 | 80 | 966.6 |
| 20260509075955 | 11 | 191 | 6.4 | 9.7 | 0.00 | 0.00 | 0.00 | 77 | 966.6 |
| 20260509074636 | 11 | 179 | 0.0 | 0.0 | 0.00 | 0.00 | 0.00 | 74 | 966.9 |
| 20260509073959 | 10 | 190 | 11.3 | 0.0 | 0.00 | 0.00 | 0.00 | 73 | 967.0 |
| 20260509073318 | 10 | 162 | 0.0 | 0.0 | 0.00 | 0.00 | 0.00 | 69 | 967.1 |
| 20260509072640 | 10 | 162 | 0.0 | 0.0 | 0.00 | 0.00 | 0.00 | 64 | 967.2 |
| 20260509071855 | 9 | 162 | 0.0 | 0.0 | 0.00 | 0.00 | 0.00 | 57 | 967.3 |
| 20260509071322 | 9 | 162 | 0.0 | 0.0 | 0.00 | 0.00 | 0.00 | 57 | 967.3 |
| 20260509070641 | 9 | 162 | 0.0 | 0.0 | 0.00 | 0.00 | 0.00 | 55 | 967.5 |
| 20260509070003 | 9 | 162 | 0.0 | 0.0 | 0.00 | 0.00 | 0.00 | 54 | 967.5 |
| 20260509065322 | 10 | 162 | 0.0 | 0.0 | 0.00 | 0.00 | 0.00 | 54 | 967.7 |
| 20260509064645 | 10 | 162 | 0.0 | 0.0 | 0.00 | 0.00 | 0.00 | 53 | 967.8 |
| 20260509064004 | 10 | 162 | 0.0 | 0.0 | 0.00 | 0.00 | 0.00 | 53 | 967.9 |
| 20260509063326 | 10 | 162 | 0.0 | 0.0 | 0.00 | 0.00 | 0.00 | 53 | 967.9 |
| 20260509062645 | 10 | 162 | 0.0 | 4.8 | 0.00 | 0.00 | 0.00 | 52 | 968.0 |
| 20260509062008 | 10 | 150 | 0.0 | 0.0 | 0.00 | 0.00 | 0.00 | 52 | 968.1 |
| 20260509060649 | 9 | 146 | 0.0 | 0.0 | 0.00 | 0.00 | 0.00 | 55 | 968.3 |
| 20260509060008 | 8 | 143 | 6.4 | 0.0 | 0.00 | 0.00 | 0.00 | 55 | 968.3 |
| 20260509055331 | 8 | 183 | 0.0 | 0.0 | 0.00 | 0.00 | 0.00 | 59 | 968.5 |
| 20260509054650 | 7 | 165 | 0.0 | 0.0 | 0.00 | 0.00 | 0.00 | 64 | 968.4 |
| 20260509054012 | 7 | 165 | 0.0 | 0.0 | 0.00 | 0.00 | 0.00 | 64 | 968.5 |
| 20260509053331 | 7 | 165 | 0.0 | 0.0 | 0.00 | 0.00 | 0.00 | 63 | 968.5 |
| 20260509052653 | 6 | 165 | 0.0 | 0.0 | 0.00 | 0.00 | 0.00 | 64 | 968.5 |
| 20260509052012 | 6 | 165 | 0.0 | 0.0 | 0.00 | 0.00 | 0.00 | 64 | 968.6 |
| 20260509051335 | 7 | 165 | 0.0 | 0.0 | 0.00 | 0.00 | 0.00 | 65 | 968.6 |
| 20260509050654 | 7 | 165 | 0.0 | 0.0 | 0.00 | 0.00 | 0.00 | 63 | 968.7 |
| 20260509050016 | 7 | 165 | 0.0 | 0.0 | 0.00 | 0.00 | 0.00 | 62 | 968.7 |
| 20260509045335 | 7 | 165 | 0.0 | 0.0 | 0.00 | 0.00 | 0.00 | 61 | 968.7 |
| 20260509044658 | 7 | 165 | 0.0 | 0.0 | 0.00 | 0.00 | 0.00 | 59 | 968.7 |
| 20260509044017 | 7 | 165 | 0.0 | 0.0 | 0.00 | 0.00 | 0.00 | 58 | 968.8 |
| 20260509043339 | 8 | 165 | 0.0 | 0.0 | 0.00 | 0.00 | 0.00 | 58 | 968.7 |
| 20260509042658 | 8 | 165 | 0.0 | 0.0 | 0.00 | 0.00 | 0.00 | 57 | 968.8 |
| 20260509042021 | 8 | 165 | 0.0 | 0.0 | 0.00 | 0.00 | 0.00 | 56 | 968.8 |
| 20260509041340 | 8 | 165 | 0.0 | 0.0 | 0.00 | 0.00 | 0.00 | 55 | 968.9 |
| 20260509040702 | 9 | 165 | 0.0 | 0.0 | 0.00 | 0.00 | 0.00 | 54 | 969.0 |
| 20260509040021 | 9 | 165 | 0.0 | 0.0 | 0.00 | 0.00 | 0.00 | 54 | 969.1 |
| 20260509034702 | 10 | 165 | 0.0 | 0.0 | 0.00 | 0.00 | 0.00 | 52 | 969.2 |
| 20260509034025 | 10 | 165 | 0.0 | 0.0 | 0.00 | 0.00 | 0.00 | 52 | 969.3 |
| 20260509033344 | 10 | 165 | 0.0 | 0.0 | 0.00 | 0.00 | 0.00 | 53 | 969.3 |
| 20260509032025 | 9 | 165 | 0.0 | 0.0 | 0.00 | 0.00 | 0.00 | 56 | 969.4 |
| 20260509031348 | 8 | 165 | 0.0 | 0.0 | 0.00 | 0.00 | 0.00 | 58 | 969.5 |
| 20260509030707 | 8 | 165 | 0.0 | 0.0 | 0.00 | 0.00 | 0.00 | 59 | 969.5 |
| 20260509030029 | 8 | 165 | 0.0 | 0.0 | 0.00 | 0.00 | 0.00 | 58 | 969.7 |
| 20260509024711 | 8 | 165 | 0.0 | 0.0 | 0.00 | 0.00 | 0.00 | 55 | 969.8 |
| 20260509024029 | 8 | 165 | 0.0 | 0.0 | 0.00 | 0.00 | 0.00 | 55 | 969.7 |
| 20260509023352 | 9 | 165 | 0.0 | 0.0 | 0.00 | 0.00 | 0.00 | 54 | 969.7 |
| 20260509022711 | 9 | 165 | 0.0 | 0.0 | 0.00 | 0.00 | 0.00 | 53 | 969.7 |
| 20260509022033 | 9 | 165 | 0.0 | 0.0 | 0.00 | 0.00 | 0.00 | 51 | 969.6 |
| 20260509020715 | 10 | 165 | 0.0 | 0.0 | 0.00 | 0.00 | 0.00 | 48 | 969.6 |
| 20260509020034 | 10 | 165 | 0.0 | 0.0 | 0.00 | 0.00 | 0.00 | 47 | 969.6 |
| 20260509015356 | 11 | 165 | 0.0 | 0.0 | 0.00 | 0.00 | 0.00 | 46 | 969.6 |
| 20260509014715 | 11 | 165 | 0.0 | 0.0 | 0.00 | 0.00 | 0.00 | 46 | 969.5 |
| 20260509014038 | 11 | 165 | 0.0 | 0.0 | 0.00 | 0.00 | 0.00 | 45 | 969.4 |
| 20260509013357 | 12 | 165 | 0.0 | 0.0 | 0.00 | 0.00 | 0.00 | 44 | 969.3 |
| 20260509012719 | 12 | 165 | 0.0 | 0.0 | 0.00 | 0.00 | 0.00 | 43 | 969.2 |
| 20260509012038 | 13 | 165 | 0.0 | 0.0 | 0.00 | 0.00 | 0.00 | 42 | 969.1 |
| 20260509011400 | 13 | 165 | 0.0 | 0.0 | 0.00 | 0.00 | 0.00 | 40 | 969.2 |
| 20260509010719 | 13 | 165 | 0.0 | 0.0 | 0.00 | 0.00 | 0.00 | 39 | 969.1 |
| 20260509005401 | 14 | 165 | 0.0 | 0.0 | 0.00 | 0.00 | 0.00 | 39 | 969.2 |
| 20260509004723 | 14 | 124 | 0.0 | 0.0 | 0.00 | 0.00 | 0.00 | 39 | 969.1 |
| 20260509004042 | 14 | 187 | 0.0 | 0.0 | 0.00 | 0.00 | 0.00 | 39 | 969.1 |
| 20260509003405 | 14 | 229 | 0.0 | 8.0 | 0.00 | 0.00 | 0.00 | 39 | 969.1 |
| 20260509002724 | 14 | 159 | 1.6 | 12.9 | 0.00 | 0.00 | 0.00 | 38 | 969.0 |
| 20260509002047 | 15 | 152 | 3.2 | 0.0 | 0.00 | 0.00 | 0.00 | 38 | 969.0 |
| 20260509001405 | 15 | 191 | 4.8 | 0.0 | 0.00 | 0.00 | 0.00 | 37 | 968.9 |
| 20260509000728 | 15 | 155 | 3.2 | 4.8 | 0.00 | 0.00 | 0.00 | 37 | 968.9 |
| 20260509000047 | 15 | 229 | 9.7 | 4.8 | 0.00 | 0.00 | 0.00 | 37 | 968.9 |
| 20260508235410 | 15 | 193 | 1.6 | 0.0 | 0.00 | 0.00 | 0.00 | 37 | 968.9 |
| 20260508234729 | 15 | 221 | 9.7 | 6.4 | 0.00 | 0.00 | 0.00 | 36 | 968.9 |
| 20260508234051 | 15 | 233 | 0.0 | 0.0 | 0.00 | 0.00 | 0.00 | 37 | 969.0 |
| 20260508233410 | 16 | 218 | 6.4 | 4.8 | 0.00 | 0.00 | 0.00 | 36 | 969.0 |
| 20260508232733 | 16 | 179 | 0.0 | 8.0 | 0.00 | 0.00 | 0.00 | 37 | 969.0 |
| 20260508232052 | 16 | 226 | 6.4 | 0.0 | 0.00 | 0.00 | 0.00 | 37 | 969.1 |
| 20260508231414 | 16 | 243 | 3.2 | 0.0 | 0.00 | 0.00 | 0.00 | 36 | 969.1 |
| 20260508230733 | 16 | 221 | 0.0 | 0.0 | 0.00 | 0.00 | 0.00 | 37 | 969.2 |
| 20260508225415 | 16 | 217 | 11.3 | 14.5 | 0.00 | 0.00 | 0.00 | 35 | 969.4 |
| 20260508224738 | 16 | 264 | 4.8 | 11.3 | 0.00 | 0.00 | 0.00 | 36 | 969.5 |
| 20260508224057 | 16 | 212 | 11.3 | 9.7 | 0.00 | 0.00 | 0.00 | 36 | 969.6 |
| 20260508223419 | 16 | 229 | 12.9 | 14.5 | 0.00 | 0.00 | 0.00 | 36 | 969.5 |
| 20260508222738 | 15 | 200 | 1.6 | 0.0 | 0.00 | 0.00 | 0.00 | 37 | 969.5 |
| 20260508222101 | 15 | 246 | 6.4 | 8.0 | 0.00 | 0.00 | 0.00 | 37 | 969.5 |
| 20260508221420 | 16 | 212 | 3.2 | 6.4 | 0.00 | 0.00 | 0.00 | 37 | 969.3 |
| 20260508220742 | 16 | 221 | 4.8 | 4.8 | 0.00 | 0.00 | 0.00 | 36 | 969.4 |
| 20260508215424 | 16 | 280 | 9.7 | 0.0 | 0.00 | 0.00 | 0.00 | 36 | 969.3 |
| 20260508214743 | 16 | 217 | 3.2 | 8.0 | 0.00 | 0.00 | 0.00 | 36 | 969.3 |
| 20260508213425 | 16 | 235 | 9.7 | 4.8 | 0.00 | 0.00 | 0.00 | 34 | 969.2 |
| 20260508212747 | 16 | 231 | 6.4 | 14.5 | 0.00 | 0.00 | 0.00 | 33 | 969.3 |
| 20260508211429 | 16 | 280 | 3.2 | 4.8 | 0.00 | 0.00 | 0.00 | 34 | 969.2 |
| 20260508210748 | 16 | 311 | 1.6 | 8.0 | 0.00 | 0.00 | 0.00 | 33 | 969.3 |
| 20260508210111 | 17 | 188 | 8.0 | 4.8 | 0.00 | 0.00 | 0.00 | 32 | 969.4 |
| 20260508205430 | 17 | 330 | 9.7 | 3.2 | 0.00 | 0.00 | 0.00 | 33 | 969.3 |
| 20260508204752 | 17 | 252 | 9.7 | 8.0 | 0.00 | 0.00 | 0.00 | 32 | 969.5 |
| 20260508204111 | 17 | 291 | 4.8 | 11.3 | 0.00 | 0.00 | 0.00 | 32 | 969.6 |
| 20260508203434 | 17 | 243 | 12.9 | 8.0 | 0.00 | 0.00 | 0.00 | 33 | 969.6 |
| 20260508202753 | 17 | 226 | 3.2 | 0.0 | 0.00 | 0.00 | 0.00 | 34 | 969.6 |
| 20260508202117 | 16 | 262 | 6.4 | 16.1 | 0.00 | 0.00 | 0.00 | 33 | 969.8 |
| 20260508201435 | 16 | 267 | 8.0 | 8.0 | 0.00 | 0.00 | 0.00 | 33 | 969.6 |
| 20260508200757 | 16 | 205 | 12.9 | 9.7 | 0.00 | 0.00 | 0.00 | 35 | 969.8 |
| 20260508195439 | 16 | 114 | 11.3 | 6.4 | 0.00 | 0.00 | 0.00 | 34 | 969.8 |
| 20260508194121 | 16 | 274 | 8.0 | 16.1 | 0.00 | 0.00 | 0.00 | 34 | 970.0 |
| 20260508193440 | 16 | 285 | 0.0 | 0.0 | 0.00 | 0.00 | 0.00 | 35 | 970.0 |
| 20260508192802 | 16 | 301 | 6.4 | 12.9 | 0.00 | 0.00 | 0.00 | 34 | 970.1 |
| 20260508192121 | 16 | 276 | 11.3 | 4.8 | 0.00 | 0.00 | 0.00 | 33 | 970.2 |
| 20260508191444 | 16 | 266 | 12.9 | 4.8 | 0.00 | 0.00 | 0.00 | 36 | 970.2 |
| 20260508191342 | 16 | 246 | 6.4 | 8.0 | 0.00 | 0.00 | 0.00 | 35 | 970.3 |
| 20260508190803 | 16 | 246 | 6.4 | 8.0 | 0.00 | 0.00 | 0.00 | 35 | 970.3 |
| 20260508190126 | 16 | 226 | 1.6 | 0.0 | 0.00 | 0.00 | 0.00 | 37 | 970.4 |
| 20260508185445 | 16 | 156 | 9.7 | 17.7 | 0.00 | 0.00 | 0.00 | 35 | 970.4 |
| 20260508184808 | 16 | 308 | 4.8 | 0.0 | 0.00 | 0.00 | 0.00 | 35 | 970.4 |
| 20260508184127 | 16 | 308 | 3.2 | 11.3 | 0.00 | 0.00 | 0.00 | 36 | 970.5 |
| 20260508183449 | 16 | 294 | 3.2 | 0.0 | 0.00 | 0.00 | 0.00 | 36 | 970.5 |
| 20260508182131 | 16 | 0 | 8.0 | 6.4 | 0.00 | 0.00 | 0.00 | 36 | 970.7 |
| 20260508181450 | 16 | 259 | 6.4 | 0.0 | 0.00 | 0.00 | 0.00 | 38 | 970.9 |
| 20260508180813 | 16 | 207 | 0.0 | 0.0 | 0.00 | 0.00 | 0.00 | 36 | 970.8 |
| 20260508180132 | 16 | 174 | 9.7 | 8.0 | 0.00 | 0.00 | 0.00 | 35 | 971.0 |
| 20260508175455 | 16 | 309 | 11.3 | 11.3 | 0.00 | 0.00 | 0.00 | 36 | 971.0 |
| 20260508174814 | 16 | 242 | 11.3 | 12.9 | 0.00 | 0.00 | 0.00 | 36 | 971.2 |
| 20260508174136 | 15 | 221 | 16.1 | 12.9 | 0.00 | 0.00 | 0.00 | 40 | 971.1 |
| 20260508173456 | 15 | 195 | 9.7 | 12.9 | 0.00 | 0.00 | 0.00 | 39 | 971.3 |
| 20260508172818 | 15 | 249 | 11.3 | 3.2 | 0.00 | 0.00 | 0.00 | 39 | 971.4 |
| 20260508172137 | 15 | 205 | 12.9 | 14.5 | 0.00 | 0.00 | 0.00 | 40 | 971.6 |
| 20260508171500 | 15 | 207 | 1.6 | 9.7 | 0.00 | 0.00 | 0.00 | 40 | 971.6 |
| 20260508170819 | 15 | 152 | 12.9 | 12.9 | 0.00 | 0.00 | 0.00 | 39 | 971.7 |
| 20260508170142 | 15 | 274 | 3.2 | 8.0 | 0.00 | 0.00 | 0.00 | 41 | 971.7 |
| 20260508165501 | 15 | 283 | 11.3 | 9.7 | 0.00 | 0.00 | 0.00 | 41 | 971.8 |
| 20260508164824 | 15 | 249 | 9.7 | 8.0 | 0.00 | 0.00 | 0.00 | 41 | 971.8 |
| 20260508164143 | 15 | 238 | 6.4 | 8.0 | 0.00 | 0.00 | 0.00 | 42 | 971.8 |
| 20260508163506 | 15 | 200 | 17.7 | 11.3 | 0.00 | 0.00 | 0.00 | 41 | 972.1 |
| 20260508162825 | 15 | 201 | 12.9 | 17.7 | 0.00 | 0.00 | 0.00 | 41 | 972.2 |
| 20260508162148 | 15 | 225 | 14.5 | 6.4 | 0.00 | 0.00 | 0.00 | 42 | 972.1 |
| 20260508161507 | 14 | 193 | 6.4 | 12.9 | 0.00 | 0.00 | 0.00 | 41 | 972.2 |
| 20260508160829 | 14 | 243 | 6.4 | 11.3 | 0.00 | 0.00 | 0.00 | 41 | 972.2 |
| 20260508160149 | 14 | 246 | 6.4 | 16.1 | 0.00 | 0.00 | 0.00 | 41 | 972.3 |
| 20260508155511 | 14 | 262 | 11.3 | 14.5 | 0.00 | 0.00 | 0.00 | 42 | 972.3 |
| 20260508154830 | 14 | 267 | 4.8 | 6.4 | 0.00 | 0.00 | 0.00 | 42 | 972.4 |
| 20260508154153 | 13 | 215 | 0.0 | 6.4 | 0.00 | 0.00 | 0.00 | 43 | 972.6 |
| 20260508152835 | 13 | 194 | 14.5 | 0.0 | 0.00 | 0.00 | 0.00 | 44 | 972.6 |
| 20260508152154 | 13 | 263 | 6.4 | 9.7 | 0.00 | 0.00 | 0.00 | 44 | 972.6 |
| 20260508151517 | 13 | 203 | 3.2 | 12.9 | 0.00 | 0.00 | 0.00 | 44 | 972.7 |
| 20260508150836 | 13 | 139 | 4.8 | 3.2 | 0.00 | 0.00 | 0.00 | 48 | 972.8 |
| 20260508150159 | 13 | 127 | 6.4 | 8.0 | 0.00 | 0.00 | 0.00 | 48 | 972.9 |
| 20260508145518 | 13 | 233 | 4.8 | 8.0 | 0.00 | 0.00 | 0.00 | 48 | 972.9 |
| 20260508144841 | 12 | 194 | 9.7 | 0.0 | 0.00 | 0.00 | 0.00 | 52 | 973.1 |
| 20260508143523 | 12 | 177 | 11.3 | 14.5 | 0.00 | 0.00 | 0.00 | 51 | 973.3 |
| 20260508142842 | 12 | 186 | 9.7 | 0.0 | 0.00 | 0.00 | 0.00 | 54 | 973.3 |
| 20260508142205 | 11 | 201 | 6.4 | 1.6 | 0.00 | 0.00 | 0.00 | 56 | 973.4 |
| 20260508141524 | 11 | 179 | 6.4 | 9.7 | 0.00 | 0.00 | 0.00 | 58 | 973.4 |
| 20260508140847 | 11 | 159 | 9.7 | 6.4 | 0.00 | 0.00 | 0.00 | 58 | 973.5 |
| 20260508140206 | 11 | 152 | 8.0 | 14.5 | 0.00 | 0.00 | 0.00 | 61 | 973.5 |
| 20260508135528 | 11 | 183 | 6.4 | 12.9 | 0.00 | 0.00 | 0.00 | 65 | 973.6 |
| 20260508134848 | 10 | 297 | 4.8 | 0.0 | 0.00 | 0.00 | 0.00 | 68 | 973.7 |
| 20260508134210 | 10 | 190 | 6.4 | 11.3 | 0.00 | 0.00 | 0.00 | 71 | 974.0 |
| 20260508133530 | 9 | 191 | 8.0 | 11.3 | 0.00 | 0.00 | 0.00 | 73 | 974.0 |
| 20260508132852 | 9 | 225 | 8.0 | 0.0 | 0.00 | 0.00 | 0.00 | 75 | 974.0 |
| 20260508132212 | 8 | 203 | 8.0 | 3.2 | 0.00 | 0.00 | 0.00 | 77 | 974.2 |
| 20260508131534 | 8 | 205 | 0.0 | 0.0 | 0.00 | 0.00 | 0.00 | 79 | 974.3 |
| 20260508130853 | 8 | 181 | 8.0 | 0.0 | 0.00 | 0.00 | 0.00 | 80 | 974.5 |
| 20260508130216 | 7 | 159 | 1.6 | 0.0 | 0.00 | 0.00 | 0.00 | 82 | 974.5 |
| 20260508125535 | 7 | 193 | 0.0 | 0.0 | 0.00 | 0.00 | 0.00 | 85 | 974.5 |
| 20260508124858 | 6 | 187 | 0.0 | 0.0 | 0.00 | 0.00 | 0.00 | 89 | 974.8 |
| 20260508124217 | 6 | 187 | 0.0 | 0.0 | 0.00 | 0.00 | 0.00 | 92 | 974.8 |
| 20260508123540 | 5 | 165 | 0.0 | 0.0 | 0.00 | 0.00 | 0.00 | 95 | 974.8 |
| 20260508122859 | 4 | 170 | 0.0 | 0.0 | 0.00 | 0.00 | 0.00 | 98 | 974.8 |
| 20260508114227 | 0 | 339 | 0.0 | 0.0 | 0.00 | 0.00 | 0.00 | 100 | 975.3 |
| 20260508112909 | 0 | 339 | 0.0 | 0.0 | 0.00 | 0.00 | 0.00 | 100 | 975.4 |
| 20260508111551 | -1 | 339 | 0.0 | 0.0 | 0.00 | 0.00 | 0.00 | 100 | 975.4 |
| 20260508110232 | -1 | 339 | 0.0 | 0.0 | 0.00 | 0.00 | 0.00 | 100 | 975.5 |
| 20260508105551 | -1 | 339 | 0.0 | 0.0 | 0.00 | 0.00 | 0.00 | 100 | 975.4 |
| 20260508104914 | -1 | 339 | 0.0 | 0.0 | 0.00 | 0.00 | 0.00 | 100 | 975.4 |
| 20260508104233 | -1 | 339 | 0.0 | 0.0 | 0.00 | 0.00 | 0.00 | 100 | 975.3 |
| 20260508103556 | -1 | 339 | 0.0 | 0.0 | 0.00 | 0.00 | 0.00 | 100 | 975.3 |